{"data":{"norad_id":63867,"intl_designator":"2025-094D","name":"STARLINK-33979","alt_names":[],"object_type":"PAYLOAD","status":"ACTIVE","operator":null,"country":"US","launch_date":"2025-05-10","launch_site_code":"AFWTR","launch_vehicle":null,"mission":null,"orbit_class":"UNKNOWN","rcs_meters":null,"size_class":null,"mass_kg":null,"dimensions":null,"purposes":["comms"],"wikipedia_slug":null,"has_3d_model":false,"image_url":null,"decayed_at":null,"tle_current":{"epoch":"2026-05-25T03:22:55.443072Z","epoch_age_seconds":56787,"freshness":"FRESH","line1":"1 63867U 25094D   26145.14091948 -.00014678  00000+0 -12254-2 0  9997","line2":"2 63867  70.0050  41.7492 0002858 264.9948  95.0885 14.98314887 58658","mean_motion":14.98314887,"eccentricity":0.0002858,"inclination_deg":70.005,"raan_deg":41.7492,"arg_perigee_deg":264.9948,"mean_anomaly_deg":95.0885,"bstar":-0.0012254,"rev_number":5865,"period_min":96.107968524776,"perigee_km":570.11624855767,"apogee_km":574.08900552849,"semimajor_km":6950.2396270431,"source":"CELESTRAK","updated_at":"2026-05-25T13:38:20.169423Z"}}}